OBJECT BT, 62674

Orbit data source: Space-Track

You're viewing an Uncataloged Satellite

Recently launched and/or uncataloged satellites may have evolving metadata. Metadata may include but not limited to: Owner, Maufacturer, Bus, Motor, and Mission.

OBJECT BT, 62674 is a satellite in SSO that was launched on Tue, 14 Jan 2025 UTC via an FALCON 9 launch vehicle from the Air Force Western Test Range (AFWTR). Unknown objects in Earth's orbit typically refer to objects detected orbiting the Earth but have not yet been identified or cataloged. These objects could be anything from previously untracked satellites, spent rocket stages, debris from satellite collisions, or even natural meteoroids temporarily captured by Earth's gravity.

Loading next visibility...
Identifier
62674, 2025-009BT
Orbit
SSO
Country
Flag of TBDTBD
Related business
None
Manufacturer
Unknown
Mission
Operational Commercial Imaging
Bus & Motor
Unknown
Mass
Unknown
Launch date (UTC)
2025-01-14 (2 years ago)
Launch vehicle
FALCON 9
Launch site
Air Force Western Test Range (AFWTR)
Object type
Unknown
Shape & HBR
Box + 2 Pan, 0.1 m
Radar Cross Section
0.035 m², Medium (>0.1 m² and < 1m²)

Expand to show TLE details & history
Last TLE update: 20 hours ago

TLE from 20 hours ago
0 OBJECT BT
1 62674U 25009BT  26208.19708987  .00011995  00000-0  40345-3 0  9992
2 62674  97.4053 290.5449 0005449 155.4785 204.6716 15.30937938142680
Epoch: 2026-07-27T04:43Z
TLE epoch observation values (Epoch: 2026-07-27T04:43:48.564Z)
Latitude
-0.00006°
Longitude
-85.29157°
Altitude
479.511 km
Speed
7.624 km/s
True Right ascension
19h 22m 10s
True Declination
0° 00' 00"
Sunlit
Object was in full shadow at epoch
Visualization orbit readout
Latitude
Unknown
Longitude
Unknown
Altitude
Unknown
Speed
Unknown
Apparent Right ascension
Unknown
Apparent Declination
Unknown
Sunlit
N/A
Visualization observer readout
Local Sidereal Time
14:15:06
Azimuth
Unknown
Elevation
Unknown
Doppler factor
Unknown
Orbital elements
Apogee altitude
473.695 km
Perigee altitude
466.232 km
Semi-major axis
6,848.101 km
Eccentricity
0.00054
Inclination
97.4053°
RAAN
290.5449°
Arg. of periapsis
155.4785°
True anomaly
204.64555°
Mean anomaly
204.6716°
Eccentric anomaly
204.65857°
Mean motion
3.8299 °/min
Orbital period
94 mins
BSTAR
0.00040345
Loading maneuver chart data...
Computing Atmospheric mass density...
Loading historical data...
Loading historical data...
Loading historical data...
Loading historical data...
Loading historical data...
Loading historical data...
Loading historical data...

Documentation

Showing up to 5 results
|